Location: Albuquerque Trailhead
(34.7934°N, 106.3736°W)
Time: 12:46:08
(UTC+00:00)

SL-4 R/B - Pass Details

Date: 20 June 2021
Orbit: 428 x 662 km, 51.6° (Epoch: 30 July)

Event Time Altitude Azimuth Distance (km) Brightness Sun altitude
Rises 05:57:24 0° 261° (W) 2,765 5.7 -29.5°
Reaches altitude 10° 06:00:09 10° 278° (W) 1,821 4.9 -29.6°
Maximum altitude 06:03:20 21° 328° (NNW) 1,210 4.4 -29.8°
Drops below altitude 10° 06:06:21 10° 20° (NNE) 1,712 5.1 -30.0°
Sets 06:08:52 0° 37° (NE) 2,552 5.9 -30.2°
